Change the Weather History Date:

Saturday, March 30, 2013

  Actual Average (KLFK) Record (KLFK)
Temperature  
Mean Temperature 70 °F 63 °F  
Max Temperature 79 °F 75 °F 95 °F (1946)
Min Temperature 60 °F 51 °F 30 °F (2003)
Degree Days  
Heating Degree Days 0 4  
Month to date heating degree days 207  
Since 1 July heating degree days 1841  
Cooling Degree Days 4 2  
Month to date cooling degree days 39  
Year to date cooling degree days 58  
Growing Degree Days 20 (Base 50)    
Moisture  
Dew Point 60 °F    
Average Humidity 78    
Maximum Humidity 96    
Minimum Humidity 46    
Precipitation  
Precipitation 0.01 in 0.11 in 2.22 in (2002)
Month to date precipitation 3.66  
Year to date precipitation 11.71  
Sea Level Pressure  
Sea Level Pressure 30.09 in    
Wind  
Wind Speed 4 mph (South)    
Max Wind Speed 16 mph    
Max Gust Speed 21 mph    
Visibility 10 miles    
Events Rain    
T = Trace of Precipitation, MM = Missing Value Source: NWS Daily Summary

Daily Weather History Graph

Daily Weather History Graph

Search for Another Location

Airport or City:

Trip Planner

Search our weather history database for the weather conditions in past years. The results will help you decide how hot, cold, wet, or windy it might be!

Date:

Astronomy

Mar. 30, 2013 Rise Set
Actual Time 7:07 AM CDT 7:34 PM CDT
Civil Twilight 6:42 AM CDT 7:58 PM CDT
Nautical Twilight 6:14 AM CDT 8:26 PM CDT
Astronomical Twilight 5:45 AM CDT 8:55 PM CDT
Moon 11:25 PM CDT (3/30) 9:17 AM CDT (3/30)
Length of Visible Light 13h 15m
Length of Day
12h 27m
Waning Gibbous, 86% of the Moon is Illuminated
Mar 30
Waning Gibbous
Apr 2
Last Quarter
Apr 10
New
Apr 18
First Quarter
Apr 25
Full

Hourly Weather History & Observations

Time (CDT) Temp. Dew Point Humidity Pressure Visibility Wind Dir Wind Speed Gust Speed Precip Events Conditions
12:15 AM 62.6 °F 59.2 °F 89% 30.19 in 10.0 mi SE 3.5 mph - N/A   Mostly Cloudy
12:35 AM 62.6 °F 59.2 °F 89% 30.19 in 10.0 mi Calm Calm - N/A   Overcast
12:55 AM 62.2 °F 59.2 °F 90% 30.18 in 10.0 mi Calm Calm - N/A   Overcast
1:15 AM 62.2 °F 59.2 °F 90% 30.18 in 10.0 mi SSE 3.5 mph - N/A   Mostly Cloudy
1:35 AM 61.9 °F 59.0 °F 90% 30.17 in 10.0 mi Calm Calm - N/A   Mostly Cloudy
1:55 AM 61.7 °F 59.0 °F 91% 30.17 in 10.0 mi Calm Calm - N/A   Overcast
2:15 AM 61.7 °F 59.0 °F 91% 30.16 in 10.0 mi Calm Calm - N/A   Mostly Cloudy
2:35 AM 61.2 °F 59.0 °F 93% 30.16 in 10.0 mi Calm Calm - N/A   Scattered Clouds
2:55 AM 60.8 °F 58.6 °F 93% 30.14 in 10.0 mi Calm Calm - N/A   Clear
3:15 AM 60.6 °F 58.5 °F 93% 30.13 in 10.0 mi SE 3.5 mph - N/A   Clear
3:35 AM 60.8 °F 58.5 °F 92% 30.12 in 10.0 mi SSE 4.6 mph - N/A   Clear
3:55 AM 60.8 °F 58.5 °F 92% 30.12 in 10.0 mi SSE 3.5 mph - N/A   Clear
4:15 AM 61.0 °F 58.5 °F 91% 30.11 in 10.0 mi SSE 3.5 mph - N/A   Clear
4:35 AM 61.0 °F 58.5 °F 91% 30.11 in 10.0 mi SSE 3.5 mph - N/A   Clear
4:55 AM 61.2 °F 58.6 °F 91% 30.11 in 10.0 mi South 4.6 mph - N/A   Clear
5:15 AM 61.0 °F 58.5 °F 91% 30.11 in 10.0 mi South 3.5 mph - N/A   Clear
5:35 AM 61.0 °F 58.8 °F 93% 30.09 in 10.0 mi SSE 4.6 mph - N/A   Clear
5:55 AM 61.2 °F 59.0 °F 93% 30.09 in 10.0 mi SE 4.6 mph - N/A   Clear
6:15 AM 61.2 °F 59.0 °F 93% 30.13 in 10.0 mi SSW 3.5 mph - N/A   Mostly Cloudy
6:35 AM 61.5 °F 59.2 °F 92% 30.14 in 10.0 mi Calm Calm - N/A Rain Light Rain
6:55 AM 61.0 °F 59.0 °F 93% 30.16 in 7.0 mi West 3.5 mph - N/A Rain Light Rain
7:15 AM 60.4 °F 59.0 °F 95% 30.16 in 7.0 mi Calm Calm - N/A   Mostly Cloudy
7:35 AM 60.4 °F 59.0 °F 95% 30.17 in 7.0 mi Calm Calm - N/A   Overcast
7:55 AM 60.3 °F 59.0 °F 96% 30.16 in 5.0 mi Calm Calm - N/A   Overcast
8:15 AM 60.3 °F 59.0 °F 96% 30.18 in 5.0 mi Calm Calm - N/A   Drizzle
8:35 AM 60.3 °F 59.0 °F 96% 30.17 in 5.0 mi Calm Calm - N/A   Overcast
8:55 AM 60.4 °F 59.2 °F 96% 30.19 in 7.0 mi Calm Calm - N/A   Overcast
9:15 AM 60.8 °F 59.4 °F 95% 30.11 in 5.0 mi SE 15.0 mph - N/A   Overcast
9:35 AM 60.8 °F 59.4 °F 95% 30.12 in 7.0 mi Calm Calm - 0.01 in Rain Rain
9:55 AM 61.5 °F 60.1 °F 95% 30.13 in 7.0 mi Calm Calm - 0.01 in   Scattered Clouds
10:15 AM 62.8 °F 61.0 °F 94% 30.13 in 10.0 mi Calm Calm - N/A   Scattered Clouds
10:35 AM 64.9 °F 62.1 °F 90% 30.12 in 10.0 mi South 4.6 mph - N/A   Scattered Clouds
10:55 AM 68.0 °F 63.1 °F 84% 30.12 in 10.0 mi South 8.1 mph - N/A   Mostly Cloudy
11:15 AM 70.2 °F 63.1 °F 78% 30.13 in 10.0 mi SSW 10.4 mph - N/A   Mostly Cloudy
11:35 AM 70.0 °F 62.4 °F 77% 30.13 in 10.0 mi SSW 9.2 mph - N/A   Mostly Cloudy
11:55 AM 70.9 °F 61.9 °F 73% 30.12 in 10.0 mi SW 6.9 mph - N/A   Mostly Cloudy
12:15 PM 72.3 °F 61.9 °F 70% 30.12 in 10.0 mi South 9.2 mph 16.1 mph N/A   Mostly Cloudy
12:35 PM 73.9 °F 62.2 °F 67% 30.11 in 10.0 mi SSW 5.8 mph - N/A   Mostly Cloudy
12:55 PM 75.6 °F 61.7 °F 62% 30.11 in 10.0 mi SSW 10.4 mph - N/A   Mostly Cloudy
1:15 PM 77.7 °F 59.4 °F 53% 30.10 in 10.0 mi South 12.7 mph 18.4 mph N/A   Mostly Cloudy
1:35 PM 78.3 °F 56.8 °F 48% 30.09 in 10.0 mi SSW 13.8 mph 20.7 mph N/A   Mostly Cloudy
1:55 PM 78.8 °F 56.8 °F 47% 30.08 in 10.0 mi South 11.5 mph 17.3 mph N/A   Mostly Cloudy
2:15 PM 79.0 °F 56.7 °F 46% 30.06 in 10.0 mi SSW 10.4 mph - N/A   Mostly Cloudy
2:35 PM 78.3 °F 57.6 °F 49% 30.06 in 10.0 mi SSW 11.5 mph - N/A   Mostly Cloudy
2:55 PM 78.3 °F 58.6 °F 51% 30.05 in 10.0 mi SSW 12.7 mph 19.6 mph N/A   Mostly Cloudy
3:15 PM 79.3 °F 59.0 °F 50% 30.04 in 10.0 mi SSW 13.8 mph 18.4 mph N/A   Scattered Clouds
3:35 PM 78.6 °F 58.8 °F 50% 30.03 in 10.0 mi South 16.1 mph 20.7 mph N/A   Mostly Cloudy
3:55 PM 79.0 °F 58.5 °F 49% 30.02 in 10.0 mi SSW 16.1 mph 20.7 mph N/A   Mostly Cloudy
4:15 PM 78.3 °F 59.0 °F 51% 30.02 in 10.0 mi SSW 10.4 mph - N/A   Mostly Cloudy
4:35 PM 78.4 °F 59.2 °F 51% 30.02 in 10.0 mi South 8.1 mph 17.3 mph N/A   Overcast
4:55 PM 77.0 °F 59.0 °F 54% 30.02 in 10.0 mi South 6.9 mph - N/A   Overcast
5:15 PM 77.0 °F 59.2 °F 54% 30.02 in 10.0 mi South 6.9 mph - N/A   Overcast
5:35 PM 77.0 °F 59.2 °F 54% 30.02 in 10.0 mi SSW 9.2 mph - N/A   Overcast
5:55 PM 76.5 °F 59.5 °F 56% 30.02 in 10.0 mi SSE 5.8 mph - N/A   Overcast
6:15 PM 75.2 °F 59.9 °F 59% 30.02 in 10.0 mi South 8.1 mph - N/A   Overcast
6:35 PM 74.8 °F 60.4 °F 61% 30.02 in 10.0 mi South 9.2 mph - N/A   Overcast
6:55 PM 73.9 °F 60.8 °F 63% 30.01 in 10.0 mi South 6.9 mph - N/A   Mostly Cloudy
7:15 PM 73.0 °F 61.0 °F 66% 30.01 in 10.0 mi South 8.1 mph - N/A   Mostly Cloudy
7:35 PM 72.0 °F 61.2 °F 69% 30.01 in 10.0 mi South 6.9 mph - N/A   Scattered Clouds
7:55 PM 71.1 °F 61.5 °F 72% 30.01 in 10.0 mi South 8.1 mph - N/A   Clear
8:15 PM 70.0 °F 61.7 °F 75% 30.01 in 10.0 mi SSE 6.9 mph - N/A   Clear
8:35 PM 69.3 °F 61.5 °F 76% 30.01 in 10.0 mi South 6.9 mph - N/A   Clear
8:55 PM 68.7 °F 61.7 °F 78% 30.02 in 10.0 mi South 6.9 mph - N/A   Clear
9:15 PM 67.6 °F 61.5 °F 81% 30.03 in 10.0 mi South 5.8 mph - N/A   Clear
9:35 PM 67.3 °F 61.7 °F 82% 30.03 in 10.0 mi SE 4.6 mph - N/A   Clear
9:55 PM 66.6 °F 61.3 °F 83% 30.03 in 10.0 mi Calm Calm - N/A   Clear
10:15 PM 65.8 °F 61.3 °F 85% 30.03 in 10.0 mi Calm Calm - N/A   Clear
10:35 PM 64.9 °F 61.2 °F 88% 30.03 in 10.0 mi Calm Calm - N/A   Clear
10:55 PM 64.6 °F 61.2 °F 89% 30.03 in 10.0 mi SE 3.5 mph - N/A   Clear
11:15 PM 64.0 °F 61.0 °F 90% 30.03 in 10.0 mi SSE 3.5 mph - N/A   Clear
11:35 PM 63.7 °F 61.0 °F 91% 30.03 in 10.0 mi Calm Calm - N/A   Clear
11:55 PM 63.5 °F 61.0 °F 91% 30.02 in 10.0 mi Calm Calm - N/A   Clear